Time,TemperatureF,DewpointF,PressureIn,WindDirection,WindDirectionDegrees,WindSpeedMPH,WindSpeedGustMPH,Humidity,HourlyPrecipIn,Conditions,Clouds,dailyrainin,SoftwareType,DateUTC
2013-01-01 00:00:00,2.0,-4.0,-100.00,North,-999,-999.0,-999.0,74,-99.99,,,-99.99,,2013-01-01 07:00:00,
2013-01-01 00:53:00,2.0,-4.0,-100.00,North,-999,-999.0,-999.0,74,-99.99,,,-99.99,,2013-01-01 07:53:00,
2013-01-01 01:00:00,4.0,-3.0,-100.00,North,-999,-999.0,-999.0,74,-99.99,,,-99.99,,2013-01-01 08:00:00,
2013-01-01 01:53:00,4.0,-3.0,-100.00,North,-999,-999.0,-999.0,74,-99.99,,,-99.99,,2013-01-01 08:53:00,
2013-01-01 02:00:00,4.0,-2.0,-100.00,North,-999,-999.0,-999.0,74,-99.99,,,-99.99,,2013-01-01 09:00:00,
2013-01-01 02:52:00,4.0,-2.0,-100.00,North,-999,-999.0,-999.0,74,-99.99,,,-99.99,,2013-01-01 09:52:00,
2013-01-01 03:00:00,4.0,-2.0,-100.00,North,-999,-999.0,-999.0,74,-99.99,,,-99.99,,2013-01-01 10:00:00,
2013-01-01 03:53:00,4.0,-2.0,-100.00,North,-999,-999.0,-999.0,74,-99.99,,,-99.99,,2013-01-01 10:53:00,
2013-01-01 04:00:00,4.0,-2.0,-100.00,North,-999,-999.0,-999.0,74,-99.99,,,-99.99,,2013-01-01 11:00:00,
2013-01-01 04:53:00,4.0,-2.0,-100.00,North,-999,-999.0,-999.0,74,-99.99,,,-99.99,,2013-01-01 11:53:00,
2013-01-01 05:00:00,2.0,-4.0,-100.00,North,-999,-999.0,-999.0,75,-99.99,,,-99.99,,2013-01-01 12:00:00,
2013-01-01 05:53:00,2.0,-4.0,-100.00,North,-999,-999.0,-999.0,75,-99.99,,,-99.99,,2013-01-01 12:53:00,
2013-01-01 06:00:00,-1.0,-7.0,-100.00,North,-999,-999.0,-999.0,74,-99.99,,,-99.99,,2013-01-01 13:00:00,
2013-01-01 06:53:00,-1.0,-7.0,-100.00,North,-999,-999.0,-999.0,74,-99.99,,,-99.99,,2013-01-01 13:53:00,
2013-01-01 07:00:00,-1.0,-8.0,-100.00,North,-999,-999.0,-999.0,74,-99.99,,,-99.99,,2013-01-01 14:00:00,
2013-01-01 07:53:00,-1.0,-8.0,-100.00,North,-999,-999.0,-999.0,74,-99.99,,,-99.99,,2013-01-01 14:53:00,
2013-01-01 08:00:00,-1.0,-7.0,-100.00,North,-999,-999.0,-999.0,74,-99.99,,,-99.99,,2013-01-01 15:00:00,
2013-01-01 08:53:00,-1.0,-7.0,-100.00,North,-999,-999.0,-999.0,74,-99.99,,,-99.99,,2013-01-01 15:53:00,
2013-01-01 09:00:00,5.0,-1.0,-100.00,North,-999,-999.0,-999.0,74,-99.99,,,-99.99,,2013-01-01 16:00:00,
2013-01-01 09:53:00,5.0,-1.0,-100.00,North,-999,-999.0,-999.0,74,-99.99,,,-99.99,,2013-01-01 16:53:00,
2013-01-01 10:00:00,11.0,4.0,-100.00,North,-999,-999.0,-999.0,74,-99.99,,,-99.99,,2013-01-01 17:00:00,
2013-01-01 10:53:00,11.0,4.0,-100.00,North,-999,-999.0,-999.0,74,-99.99,,,-99.99,,2013-01-01 17:53:00,
2013-01-01 11:00:00,12.0,6.0,-100.00,North,-999,-999.0,-999.0,75,-99.99,,,0.00,,2013-01-01 18:00:00,
2013-01-01 11:53:00,12.0,6.0,-100.00,North,-999,-999.0,-999.0,75,-99.99,,,0.00,,2013-01-01 18:53:00,
2013-01-01 12:00:00,13.0,6.0,-100.00,North,-999,-999.0,-999.0,74,-99.99,,,0.00,,2013-01-01 19:00:00,
2013-01-01 12:53:00,13.0,6.0,-100.00,North,-999,-999.0,-999.0,74,-99.99,,,0.00,,2013-01-01 19:53:00,
2013-01-01 13:00:00,15.0,8.0,-100.00,North,-999,-999.0,-999.0,74,-99.99,,,-99.99,,2013-01-01 20:00:00,
2013-01-01 13:53:00,15.0,8.0,-100.00,North,-999,-999.0,-999.0,74,-99.99,,,-99.99,,2013-01-01 20:53:00,
2013-01-01 14:00:00,13.0,6.0,-100.00,North,-999,-999.0,-999.0,74,-99.99,,,-99.99,,2013-01-01 21:00:00,
2013-01-01 14:53:00,13.0,6.0,-100.00,North,-999,-999.0,-999.0,74,-99.99,,,-99.99,,2013-01-01 21:53:00,
2013-01-01 15:00:00,11.0,5.0,-100.00,North,-999,-999.0,-999.0,75,-99.99,,,-99.99,,2013-01-01 22:00:00,
2013-01-01 15:53:00,11.0,5.0,-100.00,North,-999,-999.0,-999.0,75,-99.99,,,-99.99,,2013-01-01 22:53:00,
2013-01-01 16:00:00,9.0,3.0,-100.00,North,-999,-999.0,-999.0,75,-99.99,,,0.00,,2013-01-01 23:00:00,
2013-01-01 16:53:00,9.0,3.0,-100.00,North,-999,-999.0,-999.0,75,-99.99,,,0.00,,2013-01-01 23:53:00,
2013-01-01 17:00:00,6.0,0.0,-100.00,North,-999,-999.0,-999.0,75,-99.99,,,-99.99,,2013-01-02 00:00:00,
2013-01-01 17:53:00,6.0,0.0,-100.00,North,-999,-999.0,-999.0,75,-99.99,,,-99.99,,2013-01-02 00:53:00,
2013-01-01 18:00:00,5.0,-2.0,-100.00,North,-999,-999.0,-999.0,74,-99.99,,,-99.99,,2013-01-02 01:00:00,
2013-01-01 18:52:00,5.0,-2.0,-100.00,North,-999,-999.0,-999.0,74,-99.99,,,-99.99,,2013-01-02 01:52:00,
2013-01-01 19:00:00,6.0,0.0,-100.00,North,-999,-999.0,-999.0,74,-99.99,,,0.00,,2013-01-02 02:00:00,
2013-01-01 19:53:00,6.0,0.0,-100.00,North,-999,-999.0,-999.0,74,-99.99,,,0.00,,2013-01-02 02:53:00,
2013-01-01 20:00:00,8.0,2.0,-100.00,North,-999,-999.0,-999.0,75,-99.99,,,-99.99,,2013-01-02 03:00:00,
2013-01-01 20:53:00,8.0,2.0,-100.00,North,-999,-999.0,-999.0,75,-99.99,,,-99.99,,2013-01-02 03:53:00,
2013-01-01 22:00:00,7.0,1.0,-100.00,North,-999,-999.0,-999.0,75,-99.99,,,0.00,,2013-01-02 05:00:00,
2013-01-01 22:53:00,7.0,1.0,-100.00,North,-999,-999.0,-999.0,75,-99.99,,,0.00,,2013-01-02 05:53:00,
2013-01-01 23:00:00,8.0,1.0,-100.00,North,-999,-999.0,-999.0,75,-99.99,,,0.00,,2013-01-02 06:00:00,
2013-01-01 23:53:00,8.0,1.0,-100.00,North,-999,-999.0,-999.0,75,-99.99,,,0.00,,2013-01-02 06:53:00,